User: anonymous   Login
Location: Ikejouine
(32.5142°N, 5.4699°W)
Time: 21:09:41
(UTC+00:00)
Language:

Cosmos 1758 Rocket - Orbit

View from above orbital plane
View from above orbital plane
View from above satellite
View from above satellite

Ground track
Ground track

The orbit data is extracted from the following two-line orbital elements,

1 16792U 86046B   20185.53621153  .00000062  00000-0  46578-5 0  9994
2 16792  82.4824 235.6362 0023050 227.8509 244.6716 14.83245461839766
Epoch (UTC): 03 July 2020 12:52:08
Eccentricity: 0.0023050
inclination: 82.4824°
perigee height: 603 km
apogee height: 635 km
right ascension of ascending node: 235.6362°
argument of perigee: 227.8509°
revolutions per day: 14.83245461
mean anomaly at epoch: 244.6716°
orbit number at epoch: 83976

The dashed part of the orbit path shows where the satellite is in the earth's shadow,  

DLR